Location: *
(35.2348°S, 91.3916°E)
Time: 02:16:54
(UTC+00:00)

USA 32 - Pass Details

Date: 23 October 2019
Orbit: 778 x 782 km, 85.0° (Epoch: 28 October)

Event Time Altitude Azimuth Distance (km) Brightness Sun altitude
Rises 21:21:01 0° 190° (S) 3,297 7.6 -19.7°
Reaches altitude 10° 21:23:26 10° 194° (SSW) 2,361 6.7 -19.3°
Maximum altitude 21:28:35 54° 269° (W) 955 4.1 -18.4°
Enters shadow 21:31:41 23° 337° (NNW) 1,610 5.2 -17.8°
